User: anonymous   Login
Location: Gipe Farm
(40.9466°N, 95.5370°W)
Time: 10:18:13
(UTC-06:00)
Language:

Cosmos 2082 Rocket - Orbit

View from above orbital plane
View from above orbital plane
View from above satellite
View from above satellite

Ground track
Ground track

The orbit data is extracted from the following two-line orbital elements,

1 20625U 90046B   16339.11410946 -.00000299  00000-0 -13085-3 0  9994
2 20625  70.9981 198.5546 0012743  35.3729 324.8237 14.14607718370250
Epoch (UTC): 04 December 2016 02:44:19
Eccentricity: 0.0012743
inclination: 70.9981°
perigee height: 834 km
apogee height: 853 km
right ascension of ascending node: 198.5546°
argument of perigee: 35.3729°
revolutions per day: 14.14607718
mean anomaly at epoch: 324.8237°
orbit number at epoch: 37025

The dashed part of the orbit path shows where the satellite is in the earth's shadow,  

DLR